Address 0xa7d5e91aa2c6322d5ee306db9f68836bb0c6b047 11

Txn Hash Method
Block
From
To
Value [Txn Fee]
0x08f73e7beac2b77e4a3b854167bc0bde3cbd498691208648c7ac99f9db6122dc0x6549920d139713602022-09-26 3:24:272 days 5 mins ago0xa7d5e91aa2c6322d5ee306db9f68836bb0c6b047OUT0x2e1d0c56c6913fd6135f887080f7a14123a142a80 AVAX0.064629100
0xdda363c6211f52ddf2d397794d3d1a169e55fa277bf1b42627a7e1e147c827930xbef1e500139697942022-09-26 2:56:192 days 33 mins ago0xa7d5e91aa2c6322d5ee306db9f68836bb0c6b047OUT0x2e1d0c56c6913fd6135f887080f7a14123a142a80 AVAX0.026724100
0x515ec34d59ea519c98354e87bbac80f2c78b5581bb26213b1a699852652222d20x6549920d139689902022-09-26 2:42:122 days 47 mins ago0xa7d5e91aa2c6322d5ee306db9f68836bb0c6b047OUT0x2e1d0c56c6913fd6135f887080f7a14123a142a80 AVAX0.0638322100
0x54fc779baef2b9f8e7476551be6ec6eab7e2ab73f2c2052fa9601481e68969070xbef1e500139676452022-09-26 2:18:392 days 1 hr ago0xa7d5e91aa2c6322d5ee306db9f68836bb0c6b047OUT0x2e1d0c56c6913fd6135f887080f7a14123a142a80 AVAX0.026724100
0x0ffb2140464a76c138015081d64c07975648b1ea84120f54d1d5cecdc43e429e0x6549920d139665042022-09-26 1:58:492 days 1 hr ago0xa7d5e91aa2c6322d5ee306db9f68836bb0c6b047OUT0x2e1d0c56c6913fd6135f887080f7a14123a142a80 AVAX0.0649219100
0xa8fd6500d75f0dbf6c986d87216bf95b5104e9d7cf8540866044694ad14d9c320xbef1e500139654482022-09-26 1:40:312 days 1 hr ago0xa7d5e91aa2c6322d5ee306db9f68836bb0c6b047OUT0x2e1d0c56c6913fd6135f887080f7a14123a142a80 AVAX0.028434100
0x3f5f7067dbcccf8a43f3287d46e3e0c22242f90bb35a31d5607d2ffa7857bd6e0x6549920d139640382022-09-26 1:15:452 days 2 hrs ago0xa7d5e91aa2c6322d5ee306db9f68836bb0c6b047OUT0x2e1d0c56c6913fd6135f887080f7a14123a142a80 AVAX0.066339100
0xe068d2a7da9c100afff648d61cd77caf5b3aee1575701d89bac716ca5569909a0x6549920d139617792022-09-26 0:33:152 days 2 hrs ago0xa7d5e91aa2c6322d5ee306db9f68836bb0c6b047OUT0x2e1d0c56c6913fd6135f887080f7a14123a142a80 AVAX0.0655422100
0x619eca254a9be4a522f053f80696d5db160b57044620225af1f4af060e6dc2cb0x6549920d139595052022-09-25 23:51:532 days 3 hrs ago0xa7d5e91aa2c6322d5ee306db9f68836bb0c6b047OUT0x2e1d0c56c6913fd6135f887080f7a14123a142a80 AVAX0.0649219100
0xd0ebb0a7f1d505f5a879767a8aaf46949f78b1dfcd08705460f405a1cb2c0fa40x6549920d139572072022-09-25 23:08:502 days 4 hrs ago0xa7d5e91aa2c6322d5ee306db9f68836bb0c6b047OUT0x2e1d0c56c6913fd6135f887080f7a14123a142a80 AVAX0.068049100
0x7f1e3aad1b2db28a3083f7df51def9c46477eb6f49ad252f29874bba63f606930x6549920d139548982022-09-25 22:25:462 days 5 hrs ago0xa7d5e91aa2c6322d5ee306db9f68836bb0c6b047OUT0x2e1d0c56c6913fd6135f887080f7a14123a142a80 AVAX0.0655422100
0xeaef4a494eb102bb0868f116af8d4bc4564184cedc9ec6bac4eeac5bada9728c0x6549920d139525782022-09-25 21:42:552 days 5 hrs ago0xa7d5e91aa2c6322d5ee306db9f68836bb0c6b047OUT0x2e1d0c56c6913fd6135f887080f7a14123a142a80 AVAX0.0649219100
0xd18a9ef0f3d4053f7c3b99824dfd92ad3b32e8bf14eef5f1536c7d2e095e1ccc0x6549920d139502592022-09-25 20:59:312 days 6 hrs ago0xa7d5e91aa2c6322d5ee306db9f68836bb0c6b047OUT0x2e1d0c56c6913fd6135f887080f7a14123a142a80 AVAX0.068049100
0x2745f7730266d65b51950ef1b5ce07fa0b84b72cd7f491c37beed0cb30b7fdc20x6549920d139478782022-09-25 20:14:442 days 7 hrs ago0xa7d5e91aa2c6322d5ee306db9f68836bb0c6b047OUT0x2e1d0c56c6913fd6135f887080f7a14123a142a80 AVAX0.0655422100
0xfd036138fadf9bb254804ca7f9fcca32a47268d2b8d3418ba6c9233d85fc2240Harvest139463982022-09-25 19:47:012 days 7 hrs ago0xa7d5e91aa2c6322d5ee306db9f68836bb0c6b047OUT0x951accccfdf619d3cd8cfe0e4823d8e80354eb410 AVAX0.0081923100
0xa245b7aac14f3e49cc5880f438b6b92d714f843a010fb6cadf063bf9120436a80x6549920d139455322022-09-25 19:31:012 days 7 hrs ago0xa7d5e91aa2c6322d5ee306db9f68836bb0c6b047OUT0x2e1d0c56c6913fd6135f887080f7a14123a142a80 AVAX0.0649219100
0xe4768718c117dfd35d0b4c12fa87dc13bc9a03fa002a2a3d9ddc41f17fbdf356Harvest139442082022-09-25 19:06:232 days 8 hrs ago0xa7d5e91aa2c6322d5ee306db9f68836bb0c6b047OUT0x951accccfdf619d3cd8cfe0e4823d8e80354eb410 AVAX0.00647100
0x1b6c37a8b90b637fa6a31e6bf2ebef42b65697f85cb9ff98dd92bfcd05ed35240x6549920d139431162022-09-25 18:44:562 days 8 hrs ago0xa7d5e91aa2c6322d5ee306db9f68836bb0c6b047OUT0x2e1d0c56c6913fd6135f887080f7a14123a142a80 AVAX0.068049100
0xaaf5f3a79dadac12dba4207d8415cc74665e2b6ce77a951f7d4bd1f2c2e113edHarvest139419962022-09-25 18:23:532 days 9 hrs ago0xa7d5e91aa2c6322d5ee306db9f68836bb0c6b047OUT0x951accccfdf619d3cd8cfe0e4823d8e80354eb410 AVAX0.00647100
0xc08e4c633263894a84aa67ad286817105e06cbe7d0edefd16051e38a364b712a0x6549920d139407312022-09-25 17:58:492 days 9 hrs ago0xa7d5e91aa2c6322d5ee306db9f68836bb0c6b047OUT0x2e1d0c56c6913fd6135f887080f7a14123a142a80 AVAX0.0672522100
0x9dbc164cbc5996f1db216941b0280298144a67ba2a0e44b8b2d78295ed57c2d5Harvest139397992022-09-25 17:40:212 days 9 hrs ago0xa7d5e91aa2c6322d5ee306db9f68836bb0c6b047OUT0x951accccfdf619d3cd8cfe0e4823d8e80354eb410 AVAX0.0081923100
0xe8999e1ed3f20a6011b323421654c641f42ce235068cebd666216e586980cfbf0x6549920d139382792022-09-25 17:10:532 days 10 hrs ago0xa7d5e91aa2c6322d5ee306db9f68836bb0c6b047OUT0x2e1d0c56c6913fd6135f887080f7a14123a142a80 AVAX0.0666319100
0x0edc87677ae9f06f5ed788b9276f7ed37593bc02d423a46979bacbb5bd2eb630Harvest139374912022-09-25 16:55:102 days 10 hrs ago0xa7d5e91aa2c6322d5ee306db9f68836bb0c6b047OUT0x951accccfdf619d3cd8cfe0e4823d8e80354eb410 AVAX0.0081923100
0x3e7302e8f1630364e33db6ebd2b8ad9aafdd11ef617723a786016464302fd9a30x4ea4c6b3139363422022-09-25 16:24:532 days 11 hrs ago0xa7d5e91aa2c6322d5ee306db9f68836bb0c6b047OUT0x2e1d0c56c6913fd6135f887080f7a14123a142a80 AVAX0.0212157100
0x3b136a5f03e2e076ba8365edb2aaf9d1e476f148d414d8d7bf50bdc45936d0da0xab07211e139358152022-09-25 16:07:202 days 11 hrs ago0xa7d5e91aa2c6322d5ee306db9f68836bb0c6b047OUT0x2e1d0c56c6913fd6135f887080f7a14123a142a80 AVAX0.0210672100
[ Download CSV Export 
Parent Txn Hash Block From To Value
Loading

Contract Name:
0

Compiler Version
0

Optimization Enabled:
0

Other Settings:
-NA-
Block Transaction Gas Used Reward
Age Block Fee Address BC Fee Address Voting Power Jailed Incoming
Block Uncle Number Difficulty Gas Used Reward
Loading